Year,Month,Day,Hour,Minute,Value (Times are PST for temperature in C)
2006,09,16,00,00,9.90
2006,09,16,00,01,9.90
2006,09,16,00,02,9.90
2006,09,16,00,03,9.90
2006,09,16,00,04,9.90
2006,09,16,00,05,9.80
2006,09,16,00,06,9.80
2006,09,16,00,07,9.80
2006,09,16,00,08,9.70
2006,09,16,00,09,9.70
2006,09,16,00,10,9.70
2006,09,16,00,11,9.70
2006,09,16,00,12,9.70
2006,09,16,00,13,9.70
2006,09,16,00,14,9.70
2006,09,16,00,15,9.70
2006,09,16,00,16,9.70
2006,09,16,00,17,9.60
2006,09,16,00,18,9.60
2006,09,16,00,19,9.60
2006,09,16,00,20,9.60
2006,09,16,00,21,9.60
2006,09,16,00,22,9.60
2006,09,16,00,23,9.60
2006,09,16,00,24,9.60
2006,09,16,00,25,9.60
2006,09,16,00,26,9.70
2006,09,16,00,27,9.70
2006,09,16,00,28,9.70
2006,09,16,00,29,9.70
2006,09,16,00,30,9.70
2006,09,16,00,31,9.70
2006,09,16,00,32,9.70
2006,09,16,00,33,9.70
2006,09,16,00,34,9.70
2006,09,16,00,35,9.70
2006,09,16,00,36,9.80
2006,09,16,00,37,9.80
2006,09,16,00,38,9.80
2006,09,16,00,39,9.80
2006,09,16,00,40,9.80
2006,09,16,00,41,9.80
2006,09,16,00,42,9.80
2006,09,16,00,43,9.80
2006,09,16,00,44,9.70
2006,09,16,00,45,9.70
2006,09,16,00,46,9.70
2006,09,16,00,47,9.70
2006,09,16,00,48,9.70
2006,09,16,00,49,9.70
2006,09,16,00,50,9.70
2006,09,16,00,51,9.70
2006,09,16,00,52,9.70
2006,09,16,00,53,9.70
2006,09,16,00,54,9.70
2006,09,16,00,55,9.60
2006,09,16,00,56,9.50
2006,09,16,00,57,9.50
2006,09,16,00,58,9.40
2006,09,16,00,59,9.40
2006,09,16,01,00,9.40
2006,09,16,01,01,9.40
2006,09,16,01,02,9.40
2006,09,16,01,03,9.40
2006,09,16,01,04,9.40
2006,09,16,01,05,9.40
2006,09,16,01,06,9.40
2006,09,16,01,07,9.40
2006,09,16,01,08,9.30
2006,09,16,01,09,9.30
2006,09,16,01,10,9.30
2006,09,16,01,11,9.30
2006,09,16,01,12,9.30
2006,09,16,01,13,9.30
2006,09,16,01,14,9.30
2006,09,16,01,15,9.40
2006,09,16,01,16,9.50
2006,09,16,01,17,9.50
2006,09,16,01,18,9.60
2006,09,16,01,19,9.60
2006,09,16,01,20,9.50
2006,09,16,01,21,9.50
2006,09,16,01,22,9.50
2006,09,16,01,23,9.50
2006,09,16,01,24,9.40
2006,09,16,01,25,9.40
2006,09,16,01,26,9.40
2006,09,16,01,27,9.30
2006,09,16,01,28,9.30
2006,09,16,01,29,9.20
2006,09,16,01,30,9.20
2006,09,16,01,31,9.20
2006,09,16,01,32,9.20
2006,09,16,01,33,9.10
2006,09,16,01,34,9.10
2006,09,16,01,35,9.10
2006,09,16,01,36,9.10
2006,09,16,01,37,9.10
2006,09,16,01,38,9.10
2006,09,16,01,39,9.10
2006,09,16,01,40,9.10
2006,09,16,01,41,9.10
2006,09,16,01,42,9.10
2006,09,16,01,43,9.10
2006,09,16,01,44,9.20
2006,09,16,01,45,9.20
2006,09,16,01,46,9.20
2006,09,16,01,47,9.30
2006,09,16,01,48,9.30
2006,09,16,01,49,9.40
2006,09,16,01,50,9.40
2006,09,16,01,51,9.40
2006,09,16,01,52,9.30
2006,09,16,01,53,9.30
2006,09,16,01,54,9.30
2006,09,16,01,55,9.20
2006,09,16,01,56,9.20
2006,09,16,01,57,9.20
2006,09,16,01,58,9.20
2006,09,16,01,59,9.20
2006,09,16,02,00,9.20
2006,09,16,02,01,9.10
2006,09,16,02,02,9.10
2006,09,16,02,03,9.10
2006,09,16,02,04,9.00
2006,09,16,02,05,9.00
2006,09,16,02,06,9.00
2006,09,16,02,07,9.00
2006,09,16,02,08,9.00
2006,09,16,02,09,9.00
2006,09,16,02,10,9.00
2006,09,16,02,11,9.10
2006,09,16,02,12,9.10
2006,09,16,02,13,9.20
2006,09,16,02,14,9.20
2006,09,16,02,15,9.20
2006,09,16,02,16,9.20
2006,09,16,02,17,9.20
2006,09,16,02,18,9.20
2006,09,16,02,19,9.20
2006,09,16,02,20,9.20
2006,09,16,02,21,9.20
2006,09,16,02,22,9.20
2006,09,16,02,23,9.10
2006,09,16,02,24,9.10
2006,09,16,02,25,9.10
2006,09,16,02,26,9.10
2006,09,16,02,27,9.20
2006,09,16,02,28,9.20
2006,09,16,02,29,9.20
2006,09,16,02,30,9.20
2006,09,16,02,31,9.20
2006,09,16,02,32,9.10
2006,09,16,02,33,9.10
2006,09,16,02,34,9.00
2006,09,16,02,35,9.00
2006,09,16,02,36,8.90
2006,09,16,02,37,8.90
2006,09,16,02,38,8.90
2006,09,16,02,39,8.80
2006,09,16,02,40,8.80
2006,09,16,02,41,8.80
2006,09,16,02,42,8.80
2006,09,16,02,43,8.80
2006,09,16,02,44,8.80
2006,09,16,02,45,8.80
2006,09,16,02,46,8.70
2006,09,16,02,47,8.70
2006,09,16,02,48,8.70
2006,09,16,02,49,8.70
2006,09,16,02,50,8.70
2006,09,16,02,51,8.70
2006,09,16,02,52,8.70
2006,09,16,02,53,8.70
2006,09,16,02,54,8.70
2006,09,16,02,55,8.70
2006,09,16,02,56,8.70
2006,09,16,02,57,8.70
2006,09,16,02,58,8.70
2006,09,16,02,59,8.70
2006,09,16,03,00,8.70
2006,09,16,03,01,8.70
2006,09,16,03,02,8.60
2006,09,16,03,03,8.60
2006,09,16,03,04,8.50
2006,09,16,03,05,8.50
2006,09,16,03,06,8.40
2006,09,16,03,07,8.40
2006,09,16,03,08,8.50
2006,09,16,03,09,8.50
2006,09,16,03,10,8.50
2006,09,16,03,11,8.60
2006,09,16,03,12,8.60
2006,09,16,03,13,8.60
2006,09,16,03,14,8.60
2006,09,16,03,15,8.50
2006,09,16,03,16,8.50
2006,09,16,03,17,8.40
2006,09,16,03,18,8.40
2006,09,16,03,19,8.30
2006,09,16,03,20,8.30
2006,09,16,03,21,8.20
2006,09,16,03,22,8.20
2006,09,16,03,23,8.20
2006,09,16,03,24,8.20
2006,09,16,03,25,8.20
2006,09,16,03,26,8.20
2006,09,16,03,27,8.10
2006,09,16,03,28,8.10
2006,09,16,03,29,8.00
2006,09,16,03,30,7.90
2006,09,16,03,31,7.90
2006,09,16,03,32,7.80
2006,09,16,03,33,7.80
2006,09,16,03,34,7.80
2006,09,16,03,35,7.70
2006,09,16,03,36,7.60
2006,09,16,03,37,7.60
2006,09,16,03,38,7.60
2006,09,16,03,39,7.60
2006,09,16,03,40,7.60
2006,09,16,03,41,7.60
2006,09,16,03,42,7.60
2006,09,16,03,43,7.70
2006,09,16,03,44,7.70
2006,09,16,03,45,7.70
2006,09,16,03,46,7.70
2006,09,16,03,47,7.70
2006,09,16,03,48,7.70
2006,09,16,03,49,7.70
2006,09,16,03,50,7.70
2006,09,16,03,51,7.70
2006,09,16,03,52,7.70
2006,09,16,03,53,7.70
2006,09,16,03,54,7.70
2006,09,16,03,55,7.70
2006,09,16,03,56,7.60
2006,09,16,03,57,7.60
2006,09,16,03,58,7.60
2006,09,16,03,59,7.60
2006,09,16,04,00,7.50
2006,09,16,04,01,7.50
2006,09,16,04,02,7.50
2006,09,16,04,03,7.40
2006,09,16,04,04,7.40
2006,09,16,04,05,7.40
2006,09,16,04,06,7.40
2006,09,16,04,07,7.40
2006,09,16,04,08,7.40
2006,09,16,04,09,7.40
2006,09,16,04,10,7.30
2006,09,16,04,11,7.40
2006,09,16,04,12,7.40
2006,09,16,04,13,7.40
2006,09,16,04,14,7.40
2006,09,16,04,15,7.40
2006,09,16,04,16,7.50
2006,09,16,04,17,7.50
2006,09,16,04,18,7.50
2006,09,16,04,19,7.40
2006,09,16,04,20,7.40
2006,09,16,04,21,7.40
2006,09,16,04,22,7.50
2006,09,16,04,23,7.50
2006,09,16,04,24,7.50
2006,09,16,04,25,7.50
2006,09,16,04,26,7.40
2006,09,16,04,27,7.40
2006,09,16,04,28,7.40
2006,09,16,04,29,7.30
2006,09,16,04,30,7.30
2006,09,16,04,31,7.30
2006,09,16,04,32,7.30
2006,09,16,04,33,7.30
2006,09,16,04,34,7.30
2006,09,16,04,35,7.30
2006,09,16,04,36,7.30
2006,09,16,04,37,7.30
2006,09,16,04,38,7.30
2006,09,16,04,39,7.30
2006,09,16,04,40,7.20
2006,09,16,04,41,7.20
2006,09,16,04,42,7.20
2006,09,16,04,43,7.20
2006,09,16,04,44,7.20
2006,09,16,04,45,7.20
2006,09,16,04,46,7.30
2006,09,16,04,47,7.30
2006,09,16,04,48,7.30
2006,09,16,04,49,7.30
2006,09,16,04,50,7.30
2006,09,16,04,51,7.30
2006,09,16,04,52,7.30
2006,09,16,04,53,7.30
2006,09,16,04,54,7.30
2006,09,16,04,55,7.40
2006,09,16,04,56,7.40
2006,09,16,04,57,7.40
2006,09,16,04,58,7.40
2006,09,16,04,59,7.40
2006,09,16,05,00,7.50
2006,09,16,05,01,7.50
2006,09,16,05,02,7.50
2006,09,16,05,03,7.50
2006,09,16,05,04,7.50
2006,09,16,05,05,7.50
2006,09,16,05,06,7.50
2006,09,16,05,07,7.50
2006,09,16,05,08,7.50
2006,09,16,05,09,7.50
2006,09,16,05,10,7.50
2006,09,16,05,11,7.50
2006,09,16,05,12,7.40
2006,09,16,05,13,7.50
2006,09,16,05,14,7.50
2006,09,16,05,15,7.50
2006,09,16,05,16,7.50
2006,09,16,05,17,7.50
2006,09,16,05,18,7.50
2006,09,16,05,19,7.50
2006,09,16,05,20,7.50
2006,09,16,05,21,7.60
2006,09,16,05,22,7.60
2006,09,16,05,23,7.60
2006,09,16,05,24,7.80
2006,09,16,05,25,7.90
2006,09,16,05,26,8.00
2006,09,16,05,27,8.10
2006,09,16,05,28,8.20
2006,09,16,05,29,8.30
2006,09,16,05,30,8.30
2006,09,16,05,31,8.40
2006,09,16,05,32,8.40
2006,09,16,05,33,8.50
2006,09,16,05,34,8.50
2006,09,16,05,35,8.60
2006,09,16,05,36,8.60
2006,09,16,05,37,8.60
2006,09,16,05,38,8.60
2006,09,16,05,39,8.70
2006,09,16,05,40,8.70
2006,09,16,05,41,8.70
2006,09,16,05,42,8.70
2006,09,16,05,43,8.70
2006,09,16,05,44,8.70
2006,09,16,05,45,8.70
2006,09,16,05,46,8.70
2006,09,16,05,47,8.80
2006,09,16,05,48,8.90
2006,09,16,05,49,8.90
2006,09,16,05,50,9.00
2006,09,16,05,51,9.10
2006,09,16,05,52,9.20
2006,09,16,05,53,9.20
2006,09,16,05,54,9.20
2006,09,16,05,55,9.20
2006,09,16,05,56,9.20
2006,09,16,05,57,9.20
2006,09,16,05,58,9.20
2006,09,16,05,59,9.30
2006,09,16,06,00,9.30
2006,09,16,06,01,9.30
2006,09,16,06,02,9.30
2006,09,16,06,03,9.30
2006,09,16,06,04,9.30
2006,09,16,06,05,9.30
2006,09,16,06,06,9.30
2006,09,16,06,07,9.30
2006,09,16,06,08,9.30
2006,09,16,06,09,9.30
2006,09,16,06,10,9.30
2006,09,16,06,11,9.30
2006,09,16,06,12,9.30
2006,09,16,06,13,9.30
2006,09,16,06,14,9.30
2006,09,16,06,15,9.30
2006,09,16,06,16,9.30
2006,09,16,06,17,9.30
2006,09,16,06,18,9.30
2006,09,16,06,19,9.30
2006,09,16,06,20,9.30
2006,09,16,06,21,9.30
2006,09,16,06,22,9.30
2006,09,16,06,23,9.30
2006,09,16,06,24,9.30
2006,09,16,06,25,9.30
2006,09,16,06,26,9.30
2006,09,16,06,27,9.30
2006,09,16,06,28,9.30
2006,09,16,06,29,9.30
2006,09,16,06,30,9.40
2006,09,16,06,31,9.40
2006,09,16,06,32,9.40
2006,09,16,06,33,9.40
2006,09,16,06,34,9.40
2006,09,16,06,35,9.40
2006,09,16,06,36,9.40
2006,09,16,06,37,9.50
2006,09,16,06,38,9.50
2006,09,16,06,39,9.50
2006,09,16,06,40,9.50
2006,09,16,06,41,9.50
2006,09,16,06,42,9.40
2006,09,16,06,43,9.40
2006,09,16,06,44,9.40
2006,09,16,06,45,9.40
2006,09,16,06,46,9.40
2006,09,16,06,47,9.40
2006,09,16,06,48,9.40
2006,09,16,06,49,9.40
2006,09,16,06,50,9.40
2006,09,16,06,51,9.30
2006,09,16,06,52,9.30
2006,09,16,06,53,9.30
2006,09,16,06,54,9.30
2006,09,16,06,55,9.30
2006,09,16,06,56,9.20
2006,09,16,06,57,9.20
2006,09,16,06,58,9.20
2006,09,16,06,59,9.20
2006,09,16,07,00,9.20
2006,09,16,07,01,9.20
2006,09,16,07,02,9.20
2006,09,16,07,03,9.20
2006,09,16,07,04,9.20
2006,09,16,07,05,9.20
2006,09,16,07,06,9.20
2006,09,16,07,07,9.20
2006,09,16,07,08,9.20
2006,09,16,07,09,9.20
2006,09,16,07,10,9.20
2006,09,16,07,11,9.20
2006,09,16,07,12,9.10
2006,09,16,07,13,9.10
2006,09,16,07,14,9.10
2006,09,16,07,15,9.10
2006,09,16,07,16,9.00
2006,09,16,07,17,9.00
2006,09,16,07,18,9.00
2006,09,16,07,19,9.00
2006,09,16,07,20,9.00
2006,09,16,07,21,9.00
2006,09,16,07,22,9.00
2006,09,16,07,23,9.00
2006,09,16,07,24,8.90
2006,09,16,07,25,8.90
2006,09,16,07,26,8.90
2006,09,16,07,27,8.90
2006,09,16,07,28,8.80
2006,09,16,07,29,8.80
2006,09,16,07,30,8.80
2006,09,16,07,31,8.80
2006,09,16,07,32,8.70
2006,09,16,07,33,8.70
2006,09,16,07,34,8.70
2006,09,16,07,35,8.70
2006,09,16,07,36,8.70
2006,09,16,07,37,8.70
2006,09,16,07,38,8.70
2006,09,16,07,39,8.80
2006,09,16,07,40,8.90
2006,09,16,07,41,8.90
2006,09,16,07,42,9.00
2006,09,16,07,43,9.00
2006,09,16,07,44,9.10
2006,09,16,07,45,9.10
2006,09,16,07,46,9.20
2006,09,16,07,47,9.20
2006,09,16,07,48,9.20
2006,09,16,07,49,9.20
2006,09,16,07,50,9.20
2006,09,16,07,51,9.30
2006,09,16,07,52,9.40
2006,09,16,07,53,9.40
2006,09,16,07,54,9.40
2006,09,16,07,55,9.50
2006,09,16,07,56,9.60
2006,09,16,07,57,9.60
2006,09,16,07,58,9.70
2006,09,16,07,59,9.70
2006,09,16,08,00,9.70
2006,09,16,08,01,9.70
2006,09,16,08,02,9.80
2006,09,16,08,03,9.80
2006,09,16,08,04,9.80
2006,09,16,08,05,9.90
2006,09,16,08,06,9.90
2006,09,16,08,07,9.90
2006,09,16,08,08,9.80
2006,09,16,08,09,9.80
2006,09,16,08,10,9.80
2006,09,16,08,11,9.80
2006,09,16,08,12,9.90
2006,09,16,08,13,9.90
2006,09,16,08,14,9.90
2006,09,16,08,15,9.90
2006,09,16,08,16,9.90
2006,09,16,08,17,10.00
2006,09,16,08,18,10.10
2006,09,16,08,19,10.10
2006,09,16,08,20,10.10
2006,09,16,08,21,10.10
2006,09,16,08,22,10.10
2006,09,16,08,23,10.20
2006,09,16,08,24,10.20
2006,09,16,08,25,10.20
2006,09,16,08,26,10.20
2006,09,16,08,27,10.30
2006,09,16,08,28,10.40
2006,09,16,08,29,10.40
2006,09,16,08,30,10.40
2006,09,16,08,31,10.40
2006,09,16,08,32,10.40
2006,09,16,08,33,10.40
2006,09,16,08,34,10.40
2006,09,16,08,35,10.40
2006,09,16,08,36,10.50
2006,09,16,08,37,10.70
2006,09,16,08,38,10.80
2006,09,16,08,39,10.80
2006,09,16,08,40,10.90
2006,09,16,08,41,10.90
2006,09,16,08,42,10.90
2006,09,16,08,43,11.00
2006,09,16,08,44,11.10
2006,09,16,08,45,11.10
2006,09,16,08,46,11.10
2006,09,16,08,47,11.10
2006,09,16,08,48,11.20
2006,09,16,08,49,11.20
2006,09,16,08,50,11.20
2006,09,16,08,51,11.20
2006,09,16,08,52,11.20
2006,09,16,08,53,11.10
2006,09,16,08,54,11.10
2006,09,16,08,55,11.10
2006,09,16,08,56,11.20
2006,09,16,08,57,11.30
2006,09,16,08,58,11.40
2006,09,16,08,59,11.40
2006,09,16,09,00,11.50
2006,09,16,09,01,11.60
2006,09,16,09,02,11.70
2006,09,16,09,03,11.80
2006,09,16,09,04,11.80
2006,09,16,09,05,11.80
2006,09,16,09,06,11.80
2006,09,16,09,07,11.80
2006,09,16,09,08,11.80
2006,09,16,09,09,11.80
2006,09,16,09,10,11.80
2006,09,16,09,11,11.80
2006,09,16,09,12,11.80
2006,09,16,09,13,11.80
2006,09,16,09,14,11.80
2006,09,16,09,15,11.80
2006,09,16,09,16,11.80
2006,09,16,09,17,11.80
2006,09,16,09,18,11.80
2006,09,16,09,19,11.90
2006,09,16,09,20,12.00
2006,09,16,09,21,12.00
2006,09,16,09,22,12.00
2006,09,16,09,23,12.00
2006,09,16,09,24,12.00
2006,09,16,09,25,12.10
2006,09,16,09,26,12.10
2006,09,16,09,27,12.10
2006,09,16,09,28,12.20
2006,09,16,09,29,12.20
2006,09,16,09,30,12.30
2006,09,16,09,31,12.40
2006,09,16,09,32,12.50
2006,09,16,09,33,12.60
2006,09,16,09,34,12.70
2006,09,16,09,35,12.80
2006,09,16,09,36,12.80
2006,09,16,09,37,12.90
2006,09,16,09,38,13.00
2006,09,16,09,39,13.10
2006,09,16,09,40,13.20
2006,09,16,09,41,13.20
2006,09,16,09,42,13.30
2006,09,16,09,43,13.30
2006,09,16,09,44,13.40
2006,09,16,09,45,13.50
2006,09,16,09,46,13.50
2006,09,16,09,47,13.50
2006,09,16,09,48,13.60
2006,09,16,09,49,13.60
2006,09,16,09,50,13.70
2006,09,16,09,51,13.70
2006,09,16,09,52,13.70
2006,09,16,09,53,13.70
2006,09,16,09,54,13.70
2006,09,16,09,55,13.80
2006,09,16,09,56,13.80
2006,09,16,09,57,13.70
2006,09,16,09,58,13.70
2006,09,16,09,59,13.70
2006,09,16,10,00,13.60
2006,09,16,10,01,13.40
2006,09,16,10,02,13.30
2006,09,16,10,03,13.30
2006,09,16,10,04,13.30
2006,09,16,10,05,13.20
2006,09,16,10,06,13.10
2006,09,16,10,07,13.10
2006,09,16,10,08,13.10
2006,09,16,10,09,13.10
2006,09,16,10,10,13.10
2006,09,16,10,11,13.10
2006,09,16,10,12,13.00
2006,09,16,10,13,13.10
2006,09,16,10,14,13.00
2006,09,16,10,15,13.00
2006,09,16,10,16,13.00
2006,09,16,10,17,12.80
2006,09,16,10,18,12.90
2006,09,16,10,19,12.90
2006,09,16,10,20,12.90
2006,09,16,10,21,12.90
2006,09,16,10,22,12.90
2006,09,16,10,23,12.90
2006,09,16,10,24,12.80
2006,09,16,10,25,12.80
2006,09,16,10,26,12.80
2006,09,16,10,27,12.80
2006,09,16,10,28,12.80
2006,09,16,10,29,12.90
2006,09,16,10,30,12.90
2006,09,16,10,31,12.90
2006,09,16,10,32,13.00
2006,09,16,10,33,13.10
2006,09,16,10,34,13.30
2006,09,16,10,35,13.40
2006,09,16,10,36,13.50
2006,09,16,10,37,13.50
2006,09,16,10,38,13.60
2006,09,16,10,39,13.60
2006,09,16,10,40,13.60
2006,09,16,10,41,13.60
2006,09,16,10,42,13.60
2006,09,16,10,43,13.60
2006,09,16,10,44,13.60
2006,09,16,10,45,13.60
2006,09,16,10,46,13.60
2006,09,16,10,47,13.60
2006,09,16,10,48,13.50
2006,09,16,10,49,13.30
2006,09,16,10,50,13.20
2006,09,16,10,51,13.20
2006,09,16,10,52,13.20
2006,09,16,10,53,13.20
2006,09,16,10,54,13.20
2006,09,16,10,55,13.10
2006,09,16,10,56,13.10
2006,09,16,10,57,13.10
2006,09,16,10,58,13.10
2006,09,16,10,59,13.20
2006,09,16,11,00,13.20
2006,09,16,11,01,13.30
2006,09,16,11,02,13.40
2006,09,16,11,03,13.50
2006,09,16,11,04,13.60
2006,09,16,11,05,13.60
2006,09,16,11,06,13.70
2006,09,16,11,07,13.70
2006,09,16,11,08,13.70
2006,09,16,11,09,13.70
2006,09,16,11,10,13.80
2006,09,16,11,11,13.80
2006,09,16,11,12,13.90
2006,09,16,11,13,14.00
2006,09,16,11,14,14.00
2006,09,16,11,15,14.10
2006,09,16,11,16,14.10
2006,09,16,11,17,14.20
2006,09,16,11,18,14.20
2006,09,16,11,19,14.20
2006,09,16,11,20,14.20
2006,09,16,11,21,14.20
2006,09,16,11,22,14.30
2006,09,16,11,23,14.30
2006,09,16,11,24,14.30
2006,09,16,11,25,14.30
2006,09,16,11,26,14.40
2006,09,16,11,27,14.40
2006,09,16,11,28,14.50
2006,09,16,11,29,14.50
2006,09,16,11,30,14.50
2006,09,16,11,31,14.50
2006,09,16,11,32,14.40
2006,09,16,11,33,14.50
2006,09,16,11,34,14.50
2006,09,16,11,35,14.50
2006,09,16,11,36,14.60
2006,09,16,11,37,14.70
2006,09,16,11,38,14.60
2006,09,16,11,39,14.50
2006,09,16,11,40,14.30
2006,09,16,11,41,14.20
2006,09,16,11,42,14.00
2006,09,16,11,43,14.00
2006,09,16,11,44,13.90
2006,09,16,11,45,13.90
2006,09,16,11,46,13.90
2006,09,16,11,47,13.90
2006,09,16,11,48,13.90
2006,09,16,11,49,14.00
2006,09,16,11,50,14.10
2006,09,16,11,51,14.20
2006,09,16,11,52,14.20
2006,09,16,11,53,14.30
2006,09,16,11,54,14.40
2006,09,16,11,55,14.50
2006,09,16,11,56,14.50
2006,09,16,11,57,14.50
2006,09,16,11,58,14.40
2006,09,16,11,59,14.40
2006,09,16,12,00,14.40
2006,09,16,12,01,14.40
2006,09,16,12,02,14.30
2006,09,16,12,03,14.20
2006,09,16,12,04,14.20
2006,09,16,12,05,14.20
2006,09,16,12,06,14.20
2006,09,16,12,07,14.20
2006,09,16,12,08,14.10
2006,09,16,12,09,14.00
2006,09,16,12,10,14.00
2006,09,16,12,11,14.00
2006,09,16,12,12,14.00
2006,09,16,12,13,14.00
2006,09,16,12,14,14.00
2006,09,16,12,15,14.00
2006,09,16,12,16,14.00
2006,09,16,12,17,14.00
2006,09,16,12,18,14.00
2006,09,16,12,19,14.00
2006,09,16,12,20,14.00
2006,09,16,12,21,14.00
2006,09,16,12,22,14.00
2006,09,16,12,23,14.00
2006,09,16,12,24,14.00
2006,09,16,12,25,14.10
2006,09,16,12,26,14.10
2006,09,16,12,27,14.20
2006,09,16,12,28,14.20
2006,09,16,12,29,14.20
2006,09,16,12,30,14.20
2006,09,16,12,31,14.20
2006,09,16,12,32,14.20
2006,09,16,12,33,14.20
2006,09,16,12,34,14.20
2006,09,16,12,35,14.30
2006,09,16,12,36,14.30
2006,09,16,12,37,14.30
2006,09,16,12,38,14.30
2006,09,16,12,39,14.40
2006,09,16,12,40,14.50
2006,09,16,12,41,14.50
2006,09,16,12,42,14.50
2006,09,16,12,43,14.60
2006,09,16,12,44,14.70
2006,09,16,12,45,14.80
2006,09,16,12,46,14.80
2006,09,16,12,47,14.80
2006,09,16,12,48,14.70
2006,09,16,12,49,14.70
2006,09,16,12,50,14.60
2006,09,16,12,51,14.60
2006,09,16,12,52,14.60
2006,09,16,12,53,14.50
2006,09,16,12,54,14.50
2006,09,16,12,55,14.50
2006,09,16,12,56,14.50
2006,09,16,12,57,14.50
2006,09,16,12,58,14.50
2006,09,16,12,59,14.50
2006,09,16,13,00,14.50
2006,09,16,13,01,14.60
2006,09,16,13,02,14.60
2006,09,16,13,03,14.70
2006,09,16,13,04,14.70
2006,09,16,13,05,14.70
2006,09,16,13,06,14.80
2006,09,16,13,07,14.80
2006,09,16,13,08,14.90
2006,09,16,13,09,14.90
2006,09,16,13,10,14.90
2006,09,16,13,11,14.80
2006,09,16,13,12,14.80
2006,09,16,13,13,14.80
2006,09,16,13,14,14.80
2006,09,16,13,15,14.80
2006,09,16,13,16,14.80
2006,09,16,13,17,14.80
2006,09,16,13,18,14.80
2006,09,16,13,19,14.90
2006,09,16,13,20,14.90
2006,09,16,13,21,14.90
2006,09,16,13,22,15.00
2006,09,16,13,23,14.90
2006,09,16,13,24,15.00
2006,09,16,13,25,15.00
2006,09,16,13,26,15.00
2006,09,16,13,27,15.00
2006,09,16,13,28,15.00
2006,09,16,13,29,15.20
2006,09,16,13,30,15.30
2006,09,16,13,31,15.30
2006,09,16,13,32,15.30
2006,09,16,13,33,15.30
2006,09,16,13,34,15.30
2006,09,16,13,35,15.50
2006,09,16,13,36,15.60
2006,09,16,13,37,15.60
2006,09,16,13,38,15.50
2006,09,16,13,39,15.50
2006,09,16,13,40,15.40
2006,09,16,13,41,15.40
2006,09,16,13,42,15.40
2006,09,16,13,43,15.40
2006,09,16,13,44,15.40
2006,09,16,13,45,15.30
2006,09,16,13,46,15.30
2006,09,16,13,47,15.30
2006,09,16,13,48,15.30
2006,09,16,13,49,15.20
2006,09,16,13,50,15.20
2006,09,16,13,51,15.20
2006,09,16,13,52,15.30
2006,09,16,13,53,15.30
2006,09,16,13,54,15.40
2006,09,16,13,55,15.50
2006,09,16,13,56,15.60
2006,09,16,13,57,15.60
2006,09,16,13,58,15.70
2006,09,16,13,59,15.60
2006,09,16,14,00,15.60
2006,09,16,14,01,15.70
2006,09,16,14,02,15.60
2006,09,16,14,03,15.60
2006,09,16,14,04,15.60
2006,09,16,14,05,15.70
2006,09,16,14,06,15.70
2006,09,16,14,07,15.70
2006,09,16,14,08,15.60
2006,09,16,14,09,15.50
2006,09,16,14,10,15.60
2006,09,16,14,11,15.60
2006,09,16,14,12,15.70
2006,09,16,14,13,15.60
2006,09,16,14,14,15.60
2006,09,16,14,15,15.60
2006,09,16,14,16,15.70
2006,09,16,14,17,15.70
2006,09,16,14,18,15.70
2006,09,16,14,19,15.70
2006,09,16,14,20,15.70
2006,09,16,14,21,15.60
2006,09,16,14,22,15.60
2006,09,16,14,23,15.60
2006,09,16,14,24,15.60
2006,09,16,14,25,15.60
2006,09,16,14,26,15.70
2006,09,16,14,27,15.80
2006,09,16,14,28,15.80
2006,09,16,14,29,15.80
2006,09,16,14,30,15.80
2006,09,16,14,31,15.80
2006,09,16,14,32,15.80
2006,09,16,14,33,15.80
2006,09,16,14,34,15.80
2006,09,16,14,35,15.80
2006,09,16,14,36,15.80
2006,09,16,14,37,15.80
2006,09,16,14,38,15.80
2006,09,16,14,39,15.80
2006,09,16,14,40,15.80
2006,09,16,14,41,15.70
2006,09,16,14,42,15.70
2006,09,16,14,43,15.70
2006,09,16,14,44,15.70
2006,09,16,14,45,15.70
2006,09,16,14,46,15.60
2006,09,16,14,47,15.60
2006,09,16,14,48,15.60
2006,09,16,14,49,15.60
2006,09,16,14,50,15.60
2006,09,16,14,51,15.60
2006,09,16,14,52,15.80
2006,09,16,14,53,15.80
2006,09,16,14,54,15.80
2006,09,16,14,55,15.70
2006,09,16,14,56,15.70
2006,09,16,14,57,15.80
2006,09,16,14,58,15.90
2006,09,16,14,59,15.90
2006,09,16,15,00,16.00
2006,09,16,15,01,16.20
2006,09,16,15,02,16.20
2006,09,16,15,03,16.20
2006,09,16,15,04,16.20
2006,09,16,15,05,16.20
2006,09,16,15,06,16.20
2006,09,16,15,07,16.10
2006,09,16,15,08,16.20
2006,09,16,15,09,16.20
2006,09,16,15,10,16.30
2006,09,16,15,11,16.30
2006,09,16,15,12,16.20
2006,09,16,15,13,16.20
2006,09,16,15,14,16.20
2006,09,16,15,15,16.20
2006,09,16,15,16,16.20
2006,09,16,15,17,16.30
2006,09,16,15,18,16.30
2006,09,16,15,19,16.20
2006,09,16,15,20,16.20
2006,09,16,15,21,16.30
2006,09,16,15,22,16.30
2006,09,16,15,23,16.30
2006,09,16,15,24,16.20
2006,09,16,15,25,16.30
2006,09,16,15,26,16.30
2006,09,16,15,27,16.30
2006,09,16,15,28,16.40
2006,09,16,15,29,16.50
2006,09,16,15,30,16.60
2006,09,16,15,31,16.70
2006,09,16,15,32,16.70
2006,09,16,15,33,16.70
2006,09,16,15,34,16.70
2006,09,16,15,35,16.70
2006,09,16,15,36,16.70
2006,09,16,15,37,16.70
2006,09,16,15,38,16.60
2006,09,16,15,39,16.40
2006,09,16,15,40,16.40
2006,09,16,15,41,16.40
2006,09,16,15,42,16.40
2006,09,16,15,43,16.40
2006,09,16,15,44,16.40
2006,09,16,15,45,16.40
2006,09,16,15,46,16.50
2006,09,16,15,47,16.40
2006,09,16,15,48,16.40
2006,09,16,15,49,16.30
2006,09,16,15,50,16.30
2006,09,16,15,51,16.30
2006,09,16,15,52,16.30
2006,09,16,15,53,16.40
2006,09,16,15,54,16.30
2006,09,16,15,55,16.30
2006,09,16,15,56,16.30
2006,09,16,15,57,16.30
2006,09,16,15,58,16.30
2006,09,16,15,59,16.20
2006,09,16,16,00,16.30
2006,09,16,16,01,16.40
2006,09,16,16,02,16.40
2006,09,16,16,03,16.40
2006,09,16,16,04,16.40
2006,09,16,16,05,16.30
2006,09,16,16,06,16.30
2006,09,16,16,07,16.40
2006,09,16,16,08,16.40
2006,09,16,16,09,16.40
2006,09,16,16,10,16.40
2006,09,16,16,11,16.40
2006,09,16,16,12,16.50
2006,09,16,16,13,16.60
2006,09,16,16,14,16.60
2006,09,16,16,15,16.60
2006,09,16,16,16,16.70
2006,09,16,16,17,16.80
2006,09,16,16,18,16.90
2006,09,16,16,19,16.90
2006,09,16,16,20,17.00
2006,09,16,16,21,17.10
2006,09,16,16,22,17.20
2006,09,16,16,23,17.30
2006,09,16,16,24,17.30
2006,09,16,16,25,17.30
2006,09,16,16,26,17.30
2006,09,16,16,27,17.30
2006,09,16,16,28,17.30
2006,09,16,16,29,17.30
2006,09,16,16,30,17.30
2006,09,16,16,31,17.30
2006,09,16,16,32,17.30
2006,09,16,16,33,17.10
2006,09,16,16,34,17.10
2006,09,16,16,35,17.10
2006,09,16,16,36,17.20
2006,09,16,16,37,17.30
2006,09,16,16,38,17.30
2006,09,16,16,39,17.30
2006,09,16,16,40,17.40
2006,09,16,16,41,17.40
2006,09,16,16,42,17.50
2006,09,16,16,43,17.50
2006,09,16,16,44,17.50
2006,09,16,16,45,17.60
2006,09,16,16,46,17.60
2006,09,16,16,47,17.70
2006,09,16,16,48,17.70
2006,09,16,16,49,17.70
2006,09,16,16,50,17.70
2006,09,16,16,51,17.70
2006,09,16,16,52,17.80
2006,09,16,16,53,17.80
2006,09,16,16,54,17.80
2006,09,16,16,55,17.80
2006,09,16,16,56,17.80
2006,09,16,16,57,17.70
2006,09,16,16,58,17.60
2006,09,16,16,59,17.60
2006,09,16,17,00,17.60
2006,09,16,17,01,17.50
2006,09,16,17,02,17.60
2006,09,16,17,03,17.60
2006,09,16,17,04,17.70
2006,09,16,17,05,17.80
2006,09,16,17,06,17.80
2006,09,16,17,07,17.80
2006,09,16,17,08,17.80
2006,09,16,17,09,17.80
2006,09,16,17,10,17.90
2006,09,16,17,11,17.90
2006,09,16,17,12,17.90
2006,09,16,17,13,17.80
2006,09,16,17,14,17.70
2006,09,16,17,15,17.60
2006,09,16,17,16,17.50
2006,09,16,17,17,17.40
2006,09,16,17,18,17.30
2006,09,16,17,19,17.30
2006,09,16,17,20,17.30
2006,09,16,17,21,17.30
2006,09,16,17,22,17.30
2006,09,16,17,23,17.40
2006,09,16,17,24,17.40
2006,09,16,17,25,17.50
2006,09,16,17,26,17.50
2006,09,16,17,27,17.70
2006,09,16,17,28,17.70
2006,09,16,17,29,17.70
2006,09,16,17,30,17.70
2006,09,16,17,31,17.70
2006,09,16,17,32,17.60
2006,09,16,17,33,17.50
2006,09,16,17,34,17.40
2006,09,16,17,35,17.40
2006,09,16,17,36,17.30
2006,09,16,17,37,17.30
2006,09,16,17,38,17.30
2006,09,16,17,39,17.30
2006,09,16,17,40,17.30
2006,09,16,17,41,17.30